Regional Weather Roundup
Issued by NWS

Home | Current Version | Previous Version | Text Only | Print | Product List | Glossary On
Versions: 1 2 3 4 5 6 7 8 9 10 11 12 13 14 15 16 17 18 19 20 21 22 23 24 25 26 27
000
ASUS45 KTFX 302010
RWRMT
MONTANA REGIONAL WEATHER ROUNDUP
NATIONAL WEATHER SERVICE GREAT FALLS MT
200 PM MDT MON MAY 30 2016

NOTE: "FAIR" INDICATES FEW OR NO CLOUDS BELOW 12000 FEET WITH NO
SIGNIFICANT WEATHER AND/OR OBSTRUCTIONS TO VISIBILITY.

MTZ001>007-043-302100-
WEST OF THE DIVIDE

CITY           SKY/WX    TMP DP  RH WIND       PRES   REMARKS
KALISPELL      MOSUNNY   62  40  44 VRB7      30.16F
MISSOULA       SUNNY     66  36  32 MISG      30.15S
BUTTE          SUNNY     59  21  23 W15G23    30.15R
MULLAN PASS    SUNNY     52  27  38 VRB3      30.23S
ANACONDA         N/A     63  21  20 W13G22    30.13S
DEER LODGE       N/A     61  30  31 NW17G24   30.14S
EUREKA           N/A     61  37  41 N8        30.18F
HAMILTON         N/A     63  28  27 S3        30.15F
LIBBY            N/A     64  36  34 N7        30.17S
$$

MTZ008-052>055-302100-
SOUTHWEST MONTANA

CITY           SKY/WX    TMP DP  RH WIND       PRES   REMARKS
BOZEMAN        MOSUNNY   65  31  28 NW17G26   30.08S
DILLON         CLOUDY    63  25  23 VRB5      30.12S
W YELLOWSTONE  CLOUDY    59  27  29 W12G23    30.13S
ENNIS          SUNNY     63  27  25 NW13G22   30.17S
$$

MTZ009-010-012-014-046-048-049-054-302100-
EAST SLOPES AND CENTRAL MONTANA

CITY           SKY/WX    TMP DP  RH WIND       PRES   REMARKS
CUT BANK       PTSUNNY   57  37  47 NW24G33   30.13S
GREAT FALLS    PTSUNNY   60  34  37 N18G30    30.13S
MALMSTROM AFB  PTSUNNY   57  34  41 NW22G29   30.13S
HELENA         PTSUNNY   67  28  23 NW20G30   30.10S
CHOTEAU          N/A     57  36  44 N18G33    30.15S
$$

MTZ011-013-016-021-045-047-050-051-302100-
NORTH CENTRAL MONTANA

CITY           SKY/WX    TMP DP  RH WIND       PRES   REMARKS
HAVRE          LGT RAIN  48  41  76 W22G35    30.07R
LEWISTOWN      LGT RAIN  51  42  71 NW13G25   30.10S
N BAR RANCH      N/A     52  39  62 MISG      30.09F
CHINOOK          N/A     50  45  81 W22G30    30.04R
$$

MTZ017>020-022>027-061-062-302100-
NORTHEAST MONTANA

CITY           SKY/WX    TMP DP  RH WIND       PRES   REMARKS
GLASGOW        RAIN      52  49  89 W14       29.98R FOG
JORDAN           N/A     56  46  69 NW16      30.00R
SIDNEY         LGT RAIN  59  55  87 N8        29.92F
WOLF POINT     LGT RAIN  61  54  77 SW5       29.94S
POPLAR           N/A     57  54  88 N8        29.94F
$$

MTZ028>42-056>058-302100-
SOUTHCENTRAL AND SOUTHEAST MONTANA

CITY           SKY/WX    TMP DP  RH WIND       PRES   REMARKS
BAKER          PTSUNNY   62  53  72 NE3       29.92F
BILLINGS       RAIN      59  43  55 NW26G36   30.05R
LIVINGSTON     PTSUNNY   62  37  39 N18G36    30.05F
MILES CITY     LGT RAIN  55  49  80 NW32G40   29.95R
FORSYTH          N/A     55  54  94 NW13G23   29.98R
$$

REGIONAL REPORTS...DAKOTAS

CITY           SKY/WX    TMP DP  RH WIND       PRES   REMARKS
WILLISTON      LGT RAIN  59  52  77 N10       29.93F
MINOT          CLOUDY    69  50  50 W12       29.88S
DICKINSON      LGT RAIN  55  52  89 NE10      29.88F
BEACH          CLOUDY    59  57  94 E6        29.94F
CROSBY         PTSUNNY   63  50  63 SW18      29.94S
WATFORD CITY     N/A     57  55  94 NE7       29.91F
BISMARCK       CLOUDY    79  58  48 VRB3      29.82F
GRAND FORKS    PTSUNNY   79  53  40 CALM      29.85F
FARGO          MOSUNNY   85  45  24 SE13      29.84F
BUFFALO SD       N/A     61  53  75 NW20      29.85R
RAPID CITY     PTSUNNY   75  51  43 N30G39    29.83R
$$

REGIONAL REPORTS...WYOMING/IDAHO/WASHINGTON

CITY           SKY/WX    TMP DP  RH WIND       PRES   REMARKS
GILLETTE       MOSUNNY   65  45  48 MISG      29.98F
SHERIDAN       LGT RAIN  55  50  83 NW24G35   30.03R
BUFFALO WY     PTSUNNY   63  45  51 N10       30.02F
CODY           CLOUDY    57  46  67 N16G24    30.04R
YELLOWSTONE LA   N/A     52  25  35 W13G22    30.17S
IDAHO FALLS    CLOUDY    69  39  33 S15G23    30.08F
SALMON         CLOUDY    64  30  27 NE9       30.11F
BOISE          PTSUNNY   71  35  26 NW17G23   30.13F
SPOKANE        MOSUNNY   65  31  28 VRB3      30.21F
$$

REGIONAL REPORTS...ALBERTA

CITY           SKY/WX    TMP DP  RH WIND       PRES   REMARKS
EDMONTON       LGT RAIN  48  43  81 N14G20    30.14R
CALGARY        PTSUNNY   55  36  47 NW25G33   30.15R
MEDICINE HAT   LGT RAIN  46  45  93 W21G30    30.00S FOG
WATERTON GATE    N/A     57  36  44 N2          N/A
CARDSTON         N/A     46  39  76 N17G26      N/A
MILK RIVER       N/A     54  41  62 N28G37      N/A
$$

REGIONAL REPORTS...SASKATCHEWAN

CITY           SKY/WX    TMP DP  RH WIND       PRES   REMARKS
SWIFT CURRENT  PTSUNNY   61  48  63 W12G18    29.90S
REGINA         CLOUDY    70  48  46 SW10      29.86F
SASKATOON      PTSUNNY   64  46  52 NE16G22   29.95F
CYPRESS HILLS    N/A     41  37  87 W13G24      N/A
VAL MARIE        N/A     57  48  72 W17G23      N/A
ROCKGLEN         N/A     54  50  87 NE5         N/A
ASSINIBOIA       N/A     50  50 100 NW13G18     N/A
$$




USA.gov is the U.S. government's official web portal to all federal, state and local government web resources and services.